Springfield, IL

12:55 AM CDT on September 27, 2016 (GMT -0500)
Capital

Weather History for KSPI - January, 2012

Change the Weather History Date:

Friday, January 27, 2012

  Actual Average Record
Temperature  
Mean Temperature 36 °F 27 °F  
Max Temperature 41 °F 35 °F 65 °F (1944)
Min Temperature 30 °F 19 °F -10 °F (1963)
Degree Days  
Heating Degree Days 29 38  
Month to date heating degree days 873 1033  
Since 1 July heating degree days 2626 3173  
Cooling Degree Days 0 0  
Month to date cooling degree days 0 0  
Year to date cooling degree days 0 0  
Moisture  
Dew Point 29 °F    
Average Humidity 76    
Maximum Humidity 96    
Minimum Humidity 55    
Precipitation  
Precipitation T in 0.05 in 0.89 in (1949)
Month to date precipitation 1.44 1.60  
Year to date precipitation 1.44 1.60  
Snow  
Snow T in 0.30 in 4.70 in (1979)
Month to date snowfall 4.0 5.6  
Since 1 July snowfall 4.1 11.8  
Snow Depth 0.00 in    
Sea Level Pressure  
Sea Level Pressure 29.96 in    
Wind  
Wind Speed 5 mph (WNW)    
Max Wind Speed 14 mph    
Max Gust Speed 18 mph    
Visibility 10 miles    
Events Rain    
T = Trace of Precipitation, MM = Missing Value Source: NWS Daily Summary

Daily Weather History Graph

Daily Weather History Graph

Search for Another Location

Airport or City:

Trip Planner

Search our weather history database for the weather conditions in past years. The results will help you decide how hot, cold, wet, or windy it might be!

Date:

Astronomy

Jan. 27, 2012 Rise Set
Actual Time 7:11 AM CST 5:11 PM CST
Civil Twilight 6:42 AM CST 5:40 PM CST
Nautical Twilight 6:10 AM CST 6:13 PM CST
Astronomical Twilight 5:38 AM CST 6:45 PM CST
Moon 9:06 AM CST 10:02 PM CST
Length of Visible Light 10h 57m
Length of Day
10h 00m
Waxing Crescent, 20% of the Moon is Illuminated
Jan 27
Waxing Crescent
Jan 30
First Quarter
Feb 7
Full
Feb 14
Last Quarter
Feb 21
New

Hourly Weather History & Observations

Time (CST) Temp. Windchill Dew Point Humidity Pressure Visibility Wind Dir Wind Speed Gust Speed Precip Events Conditions
12:52 AM 36.0 °F 29.6 °F 30.9 °F 82% 29.79 in 10.0 mi WNW 8.1 mph - N/A   Overcast
1:52 AM 36.0 °F 28.5 °F 30.0 °F 79% 29.82 in 10.0 mi WNW 10.4 mph - N/A   Overcast
2:52 AM 35.1 °F 27.9 °F 30.0 °F 82% 29.84 in 10.0 mi WNW 9.2 mph - N/A   Overcast
3:17 AM 35.6 °F 28.0 °F 30.2 °F 81% 29.83 in 10.0 mi WNW 10.4 mph - N/A   Partly Cloudy
3:52 AM 34.0 °F 27.2 °F 28.9 °F 82% 29.86 in 10.0 mi NW 8.1 mph - N/A   Clear
4:52 AM 33.1 °F 24.9 °F 28.9 °F 85% 29.89 in 10.0 mi WNW 10.4 mph - N/A   Clear
5:52 AM 32.0 °F 24.8 °F 28.0 °F 85% 29.91 in 10.0 mi NW 8.1 mph - N/A   Clear
6:52 AM 30.2 °F 23.4 °F 26.6 °F 86% 29.93 in 10.0 mi NW 6.9 mph - N/A   Clear
7:52 AM 30.9 °F 25.2 °F 27.0 °F 85% 29.97 in 10.0 mi NW 5.8 mph - N/A   Clear
8:52 AM 33.1 °F 27.7 °F 27.0 °F 78% 30.00 in 10.0 mi NW 5.8 mph - N/A   Clear
9:52 AM 36.0 °F 31.1 °F 27.0 °F 70% 30.03 in 10.0 mi North 5.8 mph - N/A   Clear
10:52 AM 37.9 °F 32.7 °F 27.0 °F 65% 30.03 in 10.0 mi NNW 6.9 mph - N/A   Clear
11:52 AM 39.0 °F 36.8 °F 27.0 °F 62% 30.02 in 10.0 mi NE 3.5 mph - N/A   Scattered Clouds
12:52 PM 39.9 °F 35.8 °F 26.1 °F 58% 29.98 in 10.0 mi East 5.8 mph - N/A   Overcast
1:52 PM 41.0 °F - 26.1 °F 55% 29.98 in 10.0 mi Calm Calm - N/A   Overcast
2:52 PM 39.9 °F 37.8 °F 26.1 °F 58% 30.00 in 10.0 mi SW 3.5 mph - N/A   Overcast
3:52 PM 39.9 °F 37.8 °F 28.0 °F 63% 30.01 in 10.0 mi WSW 3.5 mph - N/A   Overcast
4:52 PM 37.9 °F 32.1 °F 30.9 °F 76% 30.02 in 10.0 mi West 8.1 mph - N/A   Overcast
5:52 PM 37.0 °F - 32.0 °F 82% 30.05 in 10.0 mi Calm Calm - N/A   Overcast
6:52 PM 36.0 °F - 32.0 °F 86% 30.04 in 10.0 mi Calm Calm - N/A   Overcast
7:52 PM 36.0 °F - 30.9 °F 82% 30.00 in 10.0 mi Calm Calm - 0.00 in   Overcast
8:52 PM 35.1 °F - 32.0 °F 89% 30.01 in 10.0 mi Calm Calm - N/A   Overcast
9:52 PM 35.1 °F - 32.0 °F 89% 30.03 in 10.0 mi Calm Calm - N/A   Overcast
10:52 PM 34.0 °F 29.8 °F 32.0 °F 92% 30.02 in 10.0 mi South 4.6 mph - N/A   Overcast
11:52 PM 34.0 °F - 32.0 °F 92% 30.00 in 8.0 mi Calm Calm - 0.00 in Rain Light Rain